Location: Montgaillard
(43.1249°N, 0.1074°E)
Time: 21:47:35
(UTC+00:00)

Daily predictions for brighter satellites

Satellite Brightness Start Highest point End
(mag) Time Altitude Azimuth Time Altitude Azimuth Time Altitude Azimuth
Sich 1 Rocket 3.6 18:18:10 10° S 18:22:38 66° E 18:27:10 10° NNE
Cosmos 1943 4.3 18:18:37 10° NW 18:24:04 50° WSW 18:29:31 10° S
Cosmos 2298 Rocket 4.2 18:19:28 10° S 18:24:37 53° ESE 18:29:48 10° NNE
CENTAUR R/B 3.6 18:17:58 10° NNW 18:25:36 46° NE 18:33:57 10° ESE
Cosmos 1975 4.1 18:21:58 10° SSW 18:25:55 48° WNW 18:29:53 10° N
Iridium 4 Rocket 3.9 18:21:54 10° S 18:27:01 74° W 18:32:37 10° N
Cosmos 1437 4.0 18:24:50 10° NNW 18:27:42 42° W 18:30:32 10° SSW
CSL-04 Debris 4.4 18:24:18 10° SE 18:29:28 50° ENE 18:34:40 10° N
Helios 1A Rocket 3.5 18:27:10 10° S 18:31:14 64° WSW 18:35:22 10° NNW
CSL-04 Rocket 3.9 18:26:12 10° SE 18:31:26 50° ENE 18:36:45 10° N
ATLAS 2AS CENTAUR R/B 3.7 18:25:50 10° SSE 18:32:29 31° ESE 18:39:09 10° NE
Okean 2 Rocket 3.2 18:28:30 10° S 18:32:52 53° E 18:37:14 10° NNE
YAOGAN 1 2.5 18:29:41 10° SSE 18:33:59 72° ENE 18:38:19 10° N
Cosmos 1025 Rocket 3.3 18:31:11 10° N 18:35:25 46° ENE 18:39:38 10° SSE
ATLAS 3B R/B 4.1 18:32:07 10° NNW 18:37:20 22° NNE 18:42:35 10° E
Abrixas rocket 2.9 18:37:29 10° NW 18:40:07 34° NNE 18:42:11 14° ENE
Cosmos 1513 Rocket 4.5 18:34:09 10° S 18:40:20 68° E 18:46:27 10° NNE
CREW DRAGON DEMO-1 DEB 4.1 18:39:33 10° NW 18:42:15 29° NNE 18:44:16 15° ENE
Cosmos 1536 Rocket 3.9 18:40:55 10° N 18:45:12 44° ENE 18:49:28 10° SSE
Cosmos 1125 Rocket 3.7 18:40:10 10° S 18:45:15 49° ESE 18:50:23 10° NNE
SJ-6B 4.3 18:48:31 15° E 18:49:31 17° ENE 18:51:59 10° NNE
CZ-2D R/B 4.5 18:47:49 10° S 18:51:33 45° W 18:55:18 10° NNW
CZ-4 R/B 2.1 18:47:26 10° S 18:51:35 60° W 18:55:43 10° NNW
Cosmos 2150 Rocket 4.1 18:46:46 10° SSW 18:52:09 85° ESE 18:57:38 10° NNE
SJ-11-01 4.2 18:47:58 10° SSE 18:52:38 67° ENE 18:57:18 10° N
CZ-2C R/B 3.2 18:48:19 10° SSE 18:53:39 85° ENE 18:59:19 10° NNW
Cosmos 1464 Rocket 3.9 18:47:33 10° S 18:53:40 83° E 18:59:53 10° N
USA 238 DEB 3.9 18:47:52 10° NW 18:55:10 80° NE 19:02:41 10° SE
USA 238 3.9 18:47:59 10° NW 18:55:15 80° NE 19:02:48 10° SE
Okean-O 3.7 18:51:11 10° S 18:55:27 48° W 18:59:46 10° NNW
Cosmos 2285 Rocket 4.1 18:49:53 10° S 18:55:55 51° ESE 19:02:03 10° NNE
Cosmos 1674 3.3 18:53:58 10° N 18:57:33 36° ENE 19:00:17 15° SE
Cosmos 1092 Rocket 4.5 18:52:52 10° N 18:58:34 37° ENE 19:04:16 10° SE
MOS 1 Rocket 3.0 19:00:03 10° NNE 19:04:24 67° E 19:08:38 10° S
TSX-5 4.3 19:03:45 10° S 19:07:11 37° ESE 19:11:27 10° NE
ARGOS 3.1 19:03:58 10° SSE 19:09:16 68° ENE 19:14:38 10° N
In-Cosmos 22 4.3 19:06:31 10° NNW 19:11:51 75° W 19:17:14 10° S
Cosmos 1048 Rocket 4.1 19:07:35 10° NNW 19:12:57 81° WSW 19:18:18 10° SSE
CZ-2C R/B 3.1 19:09:25 10° NNE 19:14:43 42° E 19:20:01 10° SSE
Cosmos 1733 3.8 19:13:47 28° SE 19:14:49 34° E 19:18:18 10° NNE
Cosmos 2151 Rocket 3.8 19:11:03 10° SSW 19:15:31 75° W 19:20:03 10° N
HJ-1C 3.8 19:13:02 10° S 19:16:17 60° W 19:19:34 10° NNW
IRIS 4.4 19:13:32 10° WSW 19:17:30 53° S 19:18:07 43° SE
Lacrosse 5 rocket 3.9 19:15:39 10° NNW 19:17:59 14° N 19:20:22 10° NE
NOSS 3-2 (A) 4.3 19:12:00 10° NW 19:19:39 73° WSW 19:28:09 10° SSE
Cosmos 2082 Rocket 3.8 19:16:41 10° N 19:20:10 16° NE 19:21:17 16° ENE
Shenzhou-11 Module 3.0 19:19:27 10° WSW 19:20:33 24° SW 19:20:33 24° SW
BREEZE-M R/B 4.4 19:09:11 10° WSW 19:22:12 72° NNW 19:24:25 23° NE
BREEZE-M DEB (TANK) 3.1 19:19:07 10° WNW 19:22:19 77° SSW 19:27:36 22° SE
DMSP B5D2-2 4.4 19:19:30 10° NNE 19:24:33 43° E 19:29:32 10° S
Cosmos 494 Rocket 3.9 19:20:26 10° NNW 19:25:45 86° ENE 19:29:53 17° SSE
Meteor 1-15 Rocket 4.2 19:20:30 10° S 19:26:08 86° E 19:31:55 10° N
Cosmos 1805 3.1 19:22:47 10° S 19:26:39 71° E 19:30:34 10° NNE
OBJECT-B 3.0 19:28:48 15° NNE 19:28:48 15° NNE 19:29:44 10° NNE
ATLAS 5 CENTAUR R/B 4.4 19:23:30 10° WNW 19:27:09 34° SW 19:37:28 10° SSE
Milstar 3 Cent rocket 3.8 19:25:42 10° SW 19:30:48 20° S 19:32:39 17° SSE
Ariane Rocket 3.0 19:28:06 24° SSE 19:31:10 63° ENE 19:36:12 10° N
SL-08 RB Rocket 3.6 19:27:52 18° SSE 19:31:12 78° ENE 19:35:45 10° N
H-2A R/B 2.6 19:27:44 10° S 19:32:37 56° W 19:37:39 10° NNW
USA 234 4.2 19:38:13 26° SE 19:38:13 26° SE 19:42:30 10° S
Cosmos 1269 Rocket 4.0 19:32:25 10° NNW 19:37:42 61° ENE 19:39:33 38° SE
KORONAS-FOTON 4.0 19:35:12 10° NNW 19:39:07 71° W 19:41:31 22° S
Nadezhda 4 Rocket 4.3 19:33:03 10° NNW 19:39:08 67° W 19:45:11 10° S
MetOp-A 4.1 19:40:20 33° SE 19:42:40 65° ENE 19:47:59 10° N
USA 186 1.8 19:42:34 72° SW 19:42:45 75° W 19:46:02 10° NNW
Cosmos 1626 2.7 19:39:15 10° N 19:42:02 41° NE 19:42:02 41° NE
Cosmos 1844 Rocket 3.9 19:39:57 10° SW 19:45:11 42° WNW 19:50:30 10° NNE
COSMOS 2406 3.4 19:41:16 10° NNW 19:46:48 50° ENE 19:47:56 44° E
ISS -1.6 19:44:35 10° NW 19:47:06 19° N 19:47:46 18° NNE
Cosmos 2278 Rocket 3.2 19:43:53 10° S 19:51:32 29° NE 19:54:33 10° NE
IRS-1A Rocket 4.3 19:47:48 21° SSE 19:51:56 87° WSW 19:57:49 10° NNW
Meteor 1-22 Rocket 4.2 19:48:09 10° S 19:53:59 75° E 20:00:04 10° NNE
Lacrosse 4 Rocket 3.3 19:50:55 10° N 19:52:52 18° NNE 19:52:52 18° NNE
Exosat Rocket 4.3 19:51:58 10° SW 19:57:16 52° WNW 20:02:10 10° NNE
Meteor 2-5 Rocket 3.7 19:51:41 10° NNW 19:57:24 83° W 20:00:46 26° S
NOSS 3-2 (C) 4.4 19:50:17 10° NW 19:57:55 67° WSW 20:03:38 23° SSE
Okean 1 Rocket 3.8 19:54:52 10° SSW 19:59:15 55° W 20:03:41 10° N
Meteor 1-24 Rocket 3.6 19:54:07 10° N 19:59:44 80° E 20:01:37 44° SSE
NOSS 3-4 (A) 3.5 19:54:25 10° SW 20:00:19 76° NW 20:06:37 10° NE
NOSS 3-4 (C) 3.4 19:54:32 10° SW 20:00:25 77° NW 20:06:43 10° NE
Resurs 01 Rocket 2.9 20:03:27 29° NNE 20:03:27 29° NNE 20:06:05 10° N
SL-14 R/B 3.8 19:58:53 10° N 20:01:55 51° N 20:01:55 51° N
Cosmos 1766 4.3 20:04:44 10° SSW 20:08:30 44° WNW 20:12:18 10° N
Cosmos 1833 Rocket 2.7 20:06:19 10° NNW 20:11:54 59° ENE 20:11:54 59° ENE
CENTAUR R/B 3.7 20:08:41 10° NW 20:16:42 57° WSW 20:22:00 25° S
SPOT 3 Rocket 3.5 20:20:50 76° NNE 20:20:50 76° NNE 20:25:41 10° NNW
Cosmos 1634 Rocket 4.3 20:16:22 10° SSW 20:22:28 65° W 20:28:40 10° N
ATLAS 2AS CENTAUR R/B 3.3 20:15:04 10° SW 20:22:59 69° NW 20:30:53 10° NNE
SJ-6B 4.2 20:24:09 34° W 20:24:09 34° W 20:27:23 10° NNW
Resurs 1-3 4.3 20:26:17 51° NNW 20:26:17 51° NNW 20:29:39 10° NNW
ATLAS 3B R/B 2.6 20:22:15 10° NNW 20:29:10 74° NE 20:29:50 69° E
Cosmos 1655 Rocket 4.1 20:32:26 10° N 20:37:50 61° NE 20:37:50 61° NE
Lacrosse 5 rocket 3.8 20:54:31 10° NNW 20:56:20 20° NNW 20:56:20 20° NNW
Cosmos 2098 Rocket 4.4 20:56:34 10° N 21:01:46 55° NNW 21:01:46 55° NNW
Cosmos 2082 Rocket 3.1 20:59:24 10° NNW 21:03:08 43° NNW 21:03:08 43° NNW
Cosmos 2278 Rocket 3.8 21:28:31 10° WSW 21:33:26 30° NW 21:38:22 10° N
